Regional Weather Roundup
Issued by NWS

Home | Current Version | Previous Version | Text Only | Print | Product List | Glossary Off
Versions: 1 2 3 4 5 6 7 8 9 10 11 12 13 14 15 16 17 18 19 20 21 22 23 24 25 26 27 28 29 30 31 32 33 34 35 36 37 38 39 40 41 42 43 44 45 46 47 48 49 50

000
ASUS43 KBIS 211210
RWRND

NORTH DAKOTA REGIONAL WEATHER ROUNDUP
NATIONAL WEATHER SERVICE BISMARCK ND
700 AM CDT MON APR 21 2014

NOTE: "FAIR" INDICATES FEW OR NO CLOUDS BELOW 12,000 FEET WITH NO
SIGNIFICANT WEATHER AND/OR OBSTRUCTIONS TO VISIBILITY.


NDZ001>003-009>011-017-211300-
NORTHWEST NORTH DAKOTA

CITY           SKY/WX    TMP DP  RH WIND       PRES   REMARKS
WILLISTON      CLOUDY    39  35  86 NW6       30.20R
6HR MIN TEMP:  31; 6HR MAX TEMP:  46;

MINOT          CLOUDY    37  32  82 NW14      30.15R
MINOT AFB      CLOUDY    37  35  94 N10       30.14R
$$

NDZ018>021-031>035-040>046-211300-
SOUTHWEST NORTH DAKOTA

CITY           SKY/WX    TMP DP  RH WIND       PRES   REMARKS
BISMARCK       CLEAR     40  33  76 W8        30.13R
6HR MIN TEMP:  40; 6HR MAX TEMP:  45;

DICKINSON      MOCLDY    35  28  75 W9        30.15R
GARRISON         N/A     40  36  86 NW13      30.13R
6HR MIN TEMP:  35; 6HR MAX TEMP:  48;

HETTINGER ARPT PTCLDY    25  21  85 W5        30.19R WCI  19
$$

NDZ004>008-012>016-024-026-027-054-211300-
NORTHEAST NORTH DAKOTA

CITY           SKY/WX    TMP DP  RH WIND       PRES   REMARKS
GRAND FORKS    MOCLDY    38  34  85 NW16      30.03R
GRND FRKS AFB  CLOUDY    39  36  87 N17       30.05R
DEVILS LAKE    CLOUDY    37  28  70 NW17G24   30.09R
$$

NDZ022-023-025-028>030-036>039-047>053-211300-
SOUTHEAST NORTH DAKOTA

CITY           SKY/WX    TMP DP  RH WIND       PRES   REMARKS
FARGO          CLEAR     44  35  70 W9        30.00R
6HR MIN TEMP:  43; 6HR MAX TEMP:  54;

JAMESTOWN      CLEAR     41  36  82 NW14      30.04R
$$




USA.gov is the U.S. government's official web portal to all federal, state and local government web resources and services.